sat.trackr.live / text

‹ back to catalog

STARLINK-37407

NORAD 69534 · 2026-133AC

PAYLOAD ACTIVE UNKNOWN

§ Identity

Operator
Country
US
Launch date
2026-06-12
Launch site
AFETR
Launch vehicle
Mass (kg)
RCS (m²)

Purposes: comms

External: N2YO · Heavens-Above · Gunter

§ Orbital elements

Epoch: 2026-09-19T13:07:05.303424Z

Period
93.85 min
Inclination
53.1551°
Eccentricity
0.0001097
Mean motion
15.34400874 rev/d
Perigee alt
462.0 km
Apogee alt
463.5 km
Semi-major
6,840.8 km
B*
4.3911e-4
RAAN
234.4343°
Arg perigee
79.4997°
Mean anomaly
280.6129°
Rev number
1,660

§ Raw data

STARLINK-374071 69534U 26133AC  26262.54658916  .00014489  00000+0  43911-3 0  99902 69534  53.1551 234.4343 0001097  79.4997 280.6129 15.34400874 16601

JSON: /api/v1/satellites/69534 · /tle

For live sub-satellite position, see the globe view (requires WebGL).

§ Visibility from observer

Set your observer location to see the next 7 days of passes ≥ 10°. The values pass through the URL so the page stays shareable.

No JS? Fill the form by hand. The geolocation button needs JavaScript.